Terug naar catalogus

BREEZE-M DEB

TANK

ActiefHEO
NORAD 32480·DEBRIS·🇷🇺 Russia

Gelanceerd Jan 28, 2008 vanaf Baikonur Cosmodrome

Loading…

Volgende Passages (komende 24 uur)

TLE

VersSource: Space-Track

Epoch: Sep 14, 2026, 14:32 UTC

1 32480U 08003C   26257.60621157  .00000013  00000-0  14800-2 0  9997
2 32480  45.0048 107.8999 7078791  87.8178 344.5861  2.30100027156470

Volg BREEZE-M DEB in realtime met AllMySat

Download on the App Store